[[{"header":{"parameterUnit":"m.s-1","parameterCategory":2,"la1":30.2991,"la2":30.254,"lo1":-89.0895,"lo2":-89.0444,"dy":0.0017,"dx":0.0017,"nx":28,"ny":28,"refTime":"2023-10-16T09:00:00:Z","depth":"0","parameterNumber":2,"parameterNumberName":"U-component_of_CURRENTS"},"data":[0,0,0,0,0,0,0,0,0,0,0,0,0,0,0,0,0,0,0,0,0,0,0,0,0,0,0,0,0,0,0,0,0,0,0,0,0,0,0,0,0,0,0,0,0,0,0,0,0,0,0,0,0,0,0,0,0,0,-0.2794,-0.2794,0,-0.273,-0.2729,-0.2727,-0.2629,-0.2628,-0.2627,-0.2626,-0.2446,-0.2442,-0.2438,0,0,0,0,0,0,0,0,0,0,0,0,0,-0.2669,-0.2672,-0.2794,-0.2794,-0.2794,-0.2731,-0.2729,-0.2727,-0.2629,-0.2628,-0.2627,-0.2626,-0.2447,-0.2443,-0.2438,0,0,0,0,0,0,0,0,0,0,0,0,0,-0.2667,-0.2673,-0.2794,-0.2745,-0.274,-0.2731,-0.2729,-0.2726,-0.2629,-0.2628,-0.2626,-0.2625,-0.2449,-0.2443,-0.2437,-0.2425,0,0,-0.2419,-0.2416,0,0,0,0,0,0,0,0,-0.2667,-0.267,-0.2752,-0.2748,-0.2743,-0.2695,-0.2619,-0.2623,-0.2629,-0.2661,-0.2626,-0.2625,-0.2526,-0.2514,-0.2492,-0.2417,-0.2409,-0.2418,-0.2415,-0.2412,-0.241,0,0,0,0,0,0,0,-0.2668,-0.2672,-0.2758,-0.2752,-0.2747,-0.2672,-0.267,-0.2618,-0.2591,-0.2658,-0.2653,-0.2662,-0.2521,-0.2498,-0.2487,-0.2406,-0.2418,-0.2413,-0.2409,-0.2407,-0.2277,-0.2278,0,0,0,0,0,0,-0.2707,-0.2674,-0.276,-0.2757,-0.2713,-0.2677,-0.2674,-0.2703,-0.2594,-0.258,-0.2664,-0.2658,-0.2509,-0.2494,-0.248,-0.2403,-0.2412,-0.2406,-0.2403,-0.2277,-0.2277,-0.2278,0,0,0,0,0,0,-0.2705,-0.2716,-0.2763,-0.272,-0.2722,-0.2682,-0.2714,-0.2703,-0.2681,-0.2602,-0.2583,-0.2655,-0.2507,-0.2488,-0.2431,-0.2397,-0.2404,-0.2398,-0.2277,-0.2277,-0.2278,-0.2284,0,0,0,0,0,0,-0.2702,-0.2716,-0.2721,-0.2724,-0.2727,-0.2749,-0.2716,-0.2703,-0.2694,-0.2686,-0.2588,-0.257,-0.2505,-0.2441,-0.2425,-0.2389,-0.2393,-0.2277,-0.2277,-0.2277,-0.2284,-0.2285,-0.2286,0,0,0,0,0,-0.2698,-0.2701,-0.2723,-0.2732,-0.2746,-0.275,-0.2742,-0.2701,-0.2696,-0.2677,-0.2621,-0.2573,-0.2431,-0.2436,-0.2418,-0.2379,-0.2277,-0.2277,-0.2277,-0.2284,-0.2285,-0.2286,0,0,0,0,0,0,-0.2639,-0.2694,-0.2716,-0.2735,-0.2749,-0.2737,-0.2708,-0.2715,-0.2659,-0.2643,-0.2575,-0.2553,-0.2491,-0.245,-0.2458,-0.2348,-0.2346,-0.2343,-0.2357,-0.2358,-0.2358,-0.2329,-0.2389,0,0,0,0,0,-0.2644,-0.2658,-0.2709,-0.2718,-0.273,-0.2732,-0.2723,-0.2716,-0.2687,-0.2661,-0.2606,-0.2541,-0.248,-0.2433,-0.2378,-0.2318,-0.2261,-0.2285,-0.2286,-0.2286,-0.2254,-0.2161,-0.2149,-0.2279,-0.2279,-0.2279,0,0,-0.2616,-0.2654,-0.2656,-0.2706,-0.2705,-0.2703,-0.2718,-0.2713,-0.2691,-0.265,-0.258,-0.2548,-0.2472,-0.2399,-0.2366,-0.2354,-0.2225,-0.2287,-0.2287,-0.2253,-0.216,-0.2146,-0.2135,-0.2279,-0.2279,-0.2279,0,0,-0.256,-0.2618,-0.2603,-0.2626,-0.2657,-0.2671,-0.2685,-0.2693,-0.2669,-0.2635,-0.2593,-0.2538,-0.2459,-0.238,-0.2334,-0.2311,-0.2246,-0.2313,-0.2267,-0.2178,-0.2166,-0.2154,-0.2082,-0.2063,-0.2297,-0.2297,-0.2297,0,-0.2538,-0.2516,-0.2593,-0.2593,-0.2578,-0.2665,-0.2628,-0.2643,-0.2627,-0.258,-0.2608,-0.2472,-0.2432,-0.2305,-0.2308,-0.2302,-0.2259,-0.2266,-0.2175,-0.2162,-0.215,-0.2079,-0.2058,-0.2297,-0.2297,-0.2297,-0.2297,0,-0.245,-0.2446,-0.2438,-0.247,-0.2486,-0.2462,-0.2525,-0.2522,-0.2533,-0.2525,-0.2437,-0.24,-0.23,-0.2304,-0.2298,-0.2189,-0.2192,-0.2199,-0.2166,-0.2136,-0.2065,-0.2043,-0.2298,-0.2298,-0.2298,-0.2297,0,0,-0.235,-0.2369,-0.2357,-0.2349,-0.24,-0.2414,-0.2396,-0.237,-0.2344,-0.2345,-0.2253,-0.2199,-0.2202,-0.2154,-0.2147,-0.2092,-0.2001,-0.2119,-0.2115,-0.2035,-0.1816,-0.1573,-0.1527,-0.2001,-0.1997,-0.1993,-0.1808,0,-0.2234,-0.2183,-0.2215,-0.2168,-0.2147,-0.2215,-0.2198,-0.2212,-0.222,-0.218,-0.2147,-0.2092,-0.2142,-0.2111,-0.2057,-0.2021,-0.1942,-0.2051,-0.1866,-0.186,-0.1635,-0.1491,-0.1206,-0.0993,-0.1786,-0.1782,-0.178,0,-0.2086,-0.2085,-0.1997,-0.2011,-0.2007,-0.2011,-0.1987,-0.1993,-0.1987,-0.1987,-0.1934,-0.1944,-0.1861,-0.1936,-0.1795,-0.1869,-0.1829,-0.1811,-0.1803,-0.1544,-0.1572,-0.1147,-0.0923,-0.1052,-0.1746,-0.1749,-0.1751,0,-0.1934,-0.1912,-0.1828,-0.1833,-0.1886,-0.1852,-0.1885,-0.1903,-0.1853,-0.1877,-0.1793,-0.1777,-0.1666,-0.1673,-0.1609,-0.1717,-0.1442,-0.1576,-0.1304,-0.129,-0.0983,-0.0945,-0.0831,-0.1435,-0.1435,-0.1435,-0.1436,0,-0.1771,-0.1729,-0.1763,-0.1743,-0.1679,-0.1763,-0.1695,-0.174,-0.1702,-0.1571,-0.1681,-0.1492,-0.1587,-0.144,-0.1513,-0.1265,-0.1332,-0.1224,-0.1183,-0.098,-0.0946,-0.0994,-0.1171,-0.1429,-0.143,-0.1431,-0.1433,0,-0.1628,-0.1641,-0.1577,-0.1596,-0.1611,-0.1584,-0.158,-0.1489,-0.1521,-0.1335,-0.1311,-0.1202,-0.0974,-0.1009,-0.0937,-0.0996,-0.0891,-0.0815,-0.057,-0.05,-0.0421,-0.0608,-0.0454,-0.0455,-0.0531,-0.0523,-0.0516,0,-0.1511,-0.1445,-0.1463,-0.1398,-0.1407,-0.1391,-0.1321,-0.1396,-0.1272,-0.1082,-0.0902,-0.065,-0.0381,-0.0178,-0.0163,-0.0139,-0.0416,0.0001,-0.0137,-0.0284,-0.0468,-0.0685,-0.0719,0.0226,0.0238,0.0248,0.0256,0,-0.1214,-0.1234,-0.1193,-0.1112,-0.1035,-0.0983,-0.0902,-0.0808,-0.0783,-0.0629,-0.03,-0.0095,0.0278,0.054,0.0607,0.0566,-0.0024,0.021,0.0015,0.015,-0.003,-0.0052,-0.0096,0.0345,0.0336,0.0329,0.0325,0.0321,-0.0887,-0.0811,-0.0713,-0.0666,-0.0608,-0.0467,-0.0371,-0.0255,-0.0062,0.0208,0.024,0.0563,0.0867,0.112,0.1036,0.1034,0.0768,0.0877,0.0663,0.0455,0.0482,0.0652,0.1161,0.1157,0.1153,0.115,0.1148,0,-0.0322,-0.0296,-0.0214,-0.0089,0.0029,-0.0096,0.005,0.0172,0.045,0.0604,0.0823,0.114,0.152,0.1564,0.1731,0.1487,0.1203,0.1237,0.0939,0.0877,0.1063,0.1128,0.1711,0.1711,0.1711,0.1711,0.1711,0.1712,0.0056,0.0261,0.0207,0.0546,0.0566,0.0739,0.0806,0.0907,0.0987,0.1223,0.1343,0.1406,0.1535,0.1765,0.1718,0.1569,0.1092,0.1112,0.0767,0.0812,0.0756,0.0703,0.0725,0.1215,0.1214,0.073,0.0725,0.0722]},{"header":{"parameterUnit":"m.s-1","parameterCategory":2,"la1":30.2991,"la2":30.254,"lo1":-89.0895,"lo2":-89.0444,"dy":0.0017,"dx":0.0017,"nx":28,"ny":28,"refTime":"2023-10-16T09:00:00:Z","depth":"0","parameterNumber":3,"parameterNumberName":"V-component_of_CURRENTS"},"data":[0,0,0,0,0,0,0,0,0,0,0,0,0,0,0,0,0,0,0,0,0,0,0,0,0,0,0,0,0,0,0,0,0,0,0,0,0,0,0,0,0,0,0,0,0,0,0,0,0,0,0,0,0,0,0,0,0,0,0.0076,0.0077,0,0.0165,0.0165,0.0166,0.0235,0.0236,0.0237,0.0239,0.0293,0.0293,0.0293,0,0,0,0,0,0,0,0,0,0,0,0,0,-0.0229,-0.0224,0.0076,0.0078,0.0079,0.0165,0.0165,0.0166,0.0235,0.0236,0.0238,0.0239,0.0293,0.0293,0.0293,0,0,0,0,0,0,0,0,0,0,0,0,0,-0.0121,-0.0222,0.0075,0.0129,0.0135,0.0165,0.0165,0.0166,0.0234,0.0236,0.0238,0.024,0.0293,0.0293,0.0293,0.0256,0,0,0.0294,0.0294,0,0,0,0,0,0,0,0,-0.0127,-0.011,0.012,0.0126,0.0133,0.0197,0.0078,0.0197,0.0234,0.0189,0.0239,0.0241,0.0261,0.0264,0.0267,0.0259,0.0261,0.0294,0.0295,0.0295,0.0295,0,0,0,0,0,0,0,-0.0134,-0.0115,0.0104,0.0121,0.0129,0.0083,0.0101,0.0099,0.0207,0.0193,0.02,0.0221,0.0263,0.0266,0.0268,0.0262,0.0294,0.0295,0.0295,0.0295,0.0306,0.0306,0,0,0,0,0,0,-0.0121,-0.012,0.0101,0.0107,0.0013,0.0088,0.0108,0.0169,0.0208,0.0218,0.0219,0.0224,0.0265,0.0268,0.0271,0.0246,0.0295,0.0295,0.0295,0.0306,0.0306,0.0307,0,0,0,0,0,0,-0.0128,-0.0101,0.0098,-0.0003,0.0021,0.0093,0.0159,0.0169,0.0182,0.0229,0.0238,0.0223,0.0266,0.027,0.0275,0.0248,0.0295,0.0295,0.0306,0.0306,0.0306,0.0185,0,0,0,0,0,0,-0.0136,-0.0103,-0.0082,0.0001,0.0028,0.0104,0.0158,0.017,0.0195,0.0202,0.0235,0.0242,0.0268,0.0274,0.0275,0.0249,0.0296,0.0306,0.0306,0.0306,0.0189,0.0181,0.0174,0,0,0,0,0,-0.0147,-0.0131,-0.008,-0.0055,0.0066,0.0103,0.011,0.0161,0.0193,0.0182,0.0217,0.0241,0.0277,0.0273,0.0275,0.0248,0.0306,0.0306,0.0306,0.0192,0.0182,0.0174,0,0,0,0,0,0,-0.0264,-0.0119,-0.0062,-0.0003,0.0047,0.0118,0.0106,0.0153,0.0171,0.0175,0.0226,0.0233,0.0235,0.0262,0.0257,0.026,0.0302,0.0302,0.0214,0.0206,0.0198,0.0148,0.0296,0,0,0,0,0,-0.0272,-0.0214,-0.0101,-0.0062,-0.0037,0.0034,0.0051,0.0093,0.0134,0.0144,0.0177,0.0212,0.0234,0.0236,0.026,0.0239,0.0289,0.0234,0.0227,0.022,0.0185,0.0253,0.0248,0.0307,0.0307,0.0307,0,0,-0.0306,-0.0222,-0.0189,-0.0084,-0.0045,-0.0043,0.0046,0.0066,0.0061,0.0143,0.0129,0.0183,0.0228,0.0219,0.0222,0.0235,0.0235,0.022,0.0213,0.0182,0.0253,0.0246,0.0241,0.0307,0.0307,0.0307,0,0,-0.0376,-0.0272,-0.0261,-0.0226,-0.0157,-0.0113,-0.0105,-0.0031,-0.0006,0.0001,0.0067,0.0098,0.0127,0.015,0.0166,0.0129,0.0201,0.0158,0.006,0.0127,0.0122,0.0118,0.0188,0.0191,0.0144,0.0144,0.0143,0,-0.042,-0.0368,-0.0268,-0.0271,-0.0247,-0.0149,-0.0162,-0.0143,-0.0079,-0.0053,-0.0019,0.0057,0.0085,0.0087,0.0069,0.0104,0.0167,0.0082,0.0114,0.0111,0.0108,0.0182,0.0187,0.0138,0.0138,0.0139,0.014,0,-0.0492,-0.0456,-0.0462,-0.0408,-0.0391,-0.0382,-0.0319,-0.0302,-0.0244,-0.0195,-0.0153,-0.01,-0.0041,-0.003,-0.0009,-0.0006,0.0053,0.0102,0.0125,0.0094,0.0175,0.0182,0.0129,0.0132,0.0133,0.0135,0,0,-0.0527,-0.0506,-0.0502,-0.0492,-0.0446,-0.0425,-0.0449,-0.0401,-0.0364,-0.0333,-0.0274,-0.0281,-0.0201,-0.0179,-0.0119,-0.0101,-0.007,-0.0028,-0.0022,0.002,0.0091,0.0186,0.0204,-0.0003,-0.0003,-0.0003,0.0158,0,-0.0593,-0.0624,-0.0596,-0.0626,-0.062,-0.0554,-0.0564,-0.0522,-0.0446,-0.0371,-0.0321,-0.0241,-0.027,-0.0197,-0.0203,-0.0065,-0.0059,-0.0118,0.0131,0.0138,0.0209,0.0212,0.0282,0.0436,0.0166,0.0167,0.0168,0,-0.0642,-0.0647,-0.0692,-0.0666,-0.0657,-0.0678,-0.0605,-0.0597,-0.0501,-0.0423,-0.0368,-0.0271,-0.024,-0.0222,-0.0123,-0.0147,-0.0072,0.0002,0.0013,0.0138,0.0245,0.0423,0.046,0.0437,0.018,0.0179,0.0178,0,-0.0666,-0.0691,-0.0719,-0.0719,-0.0703,-0.0707,-0.069,-0.0613,-0.0518,-0.0427,-0.0288,-0.0276,-0.0137,-0.0123,0.0013,-0.0037,0.0174,0.0151,0.0286,0.0295,0.0417,0.0437,0.0438,0.0194,0.0193,0.0193,0.0192,0,-0.0692,-0.0683,-0.0735,-0.0744,-0.0733,-0.0733,-0.0667,-0.0629,-0.049,-0.0326,-0.0302,-0.0114,-0.0096,0.0052,0.0057,0.0224,0.0217,0.0259,0.0339,0.0382,0.0396,0.0434,0.0404,0.0199,0.0198,0.0196,0.0195,0,-0.0609,-0.0684,-0.0681,-0.0722,-0.0735,-0.0705,-0.0603,-0.0503,-0.0416,-0.0181,-0.0121,0.0073,0.0253,0.0288,0.0415,0.0382,0.0512,0.053,0.0578,0.0657,0.0686,0.0648,0.076,0.0831,0.0652,0.0656,0.0658,0,-0.0495,-0.0526,-0.062,-0.0608,-0.0608,-0.0574,-0.0507,-0.0458,-0.0301,-0.0027,0.0138,0.0365,0.0595,0.079,0.0772,0.0806,0.0747,0.0858,0.0726,0.0689,0.0705,0.0665,0.0713,0.0854,0.0858,0.0861,0.0864,0,-0.024,-0.0337,-0.0355,-0.0384,-0.0368,-0.0296,-0.0204,-0.0091,0.0037,0.0234,0.0564,0.075,0.096,0.1073,0.1099,0.1092,0.0874,0.0927,0.0886,0.0844,0.0806,0.0917,0.0742,0.0894,0.0891,0.0889,0.0887,0.0886,0.0024,0.0034,-0.0064,-0.0068,-0.0052,0.0042,0.0133,0.0261,0.0482,0.0777,0.0884,0.1167,0.1274,0.1347,0.1304,0.1227,0.1162,0.1134,0.109,0.1051,0.1103,0.0986,0.1227,0.1226,0.1225,0.1224,0.1224,0,0.0368,0.0289,0.0302,0.0276,0.0367,0.0278,0.0417,0.0526,0.0775,0.0976,0.1226,0.1533,0.1568,0.1531,0.1419,0.1348,0.1323,0.1308,0.1227,0.1269,0.1177,0.1165,0.1408,0.1408,0.1408,0.1408,0.1408,0.1408,0.0534,0.0577,0.0502,0.0681,0.0684,0.0797,0.0862,0.0966,0.1092,0.1399,0.161,0.1781,0.1855,0.148,0.1324,0.1336,0.1349,0.1354,0.1344,0.1201,0.1178,0.1157,0.1135,0.1368,0.1368,0.1473,0.1473,0.1474]}],[{"header":{"parameterUnit":"m.s-1","parameterCategory":2,"la1":30.2991,"la2":30.254,"lo1":-89.0895,"lo2":-89.0444,"dy":0.0017,"dx":0.0017,"nx":28,"ny":28,"refTime":"2023-10-16T09:00:00:Z","depth":"2","parameterNumber":2,"parameterNumberName":"U-component_of_CURRENTS"},"data":[0,0,0,0,0,0,0,0,0,0,0,0,0,0,0,0,0,0,0,0,0,0,0,0,0,0,0,0,0,0,0,0,0,0,0,0,0,0,0,0,0,0,0,0,0,0,0,0,0,0,0,0,0,0,0,0,0,0,-0.1686,-0.1686,0,-0.1645,-0.1645,-0.1645,-0.1685,-0.1686,-0.1688,-0.1689,-0.1785,-0.1786,-0.1787,0,0,0,0,0,0,0,0,0,0,0,0,0,-0.1731,-0.1731,-0.1686,-0.1686,-0.1685,-0.1645,-0.1645,-0.1644,-0.1684,-0.1686,-0.1688,-0.169,-0.1784,-0.1786,-0.1787,0,0,0,0,0,0,0,0,0,0,0,0,0,-0.1704,-0.173,-0.1686,-0.17,-0.17,-0.1646,-0.1645,-0.1644,-0.1684,-0.1686,-0.1689,-0.1691,-0.1784,-0.1786,-0.1787,-0.1752,0,0,-0.1792,-0.1793,0,0,0,0,0,0,0,0,-0.1705,-0.1702,-0.1698,-0.1699,-0.1699,-0.1672,-0.1696,-0.1687,-0.1683,-0.1691,-0.1689,-0.1692,-0.1758,-0.1761,-0.1748,-0.1757,-0.1761,-0.1793,-0.1794,-0.1794,-0.1795,0,0,0,0,0,0,0,-0.1707,-0.1704,-0.1671,-0.1697,-0.1698,-0.1684,-0.1684,-0.1693,-0.1715,-0.169,-0.1693,-0.1687,-0.1759,-0.1746,-0.1751,-0.1762,-0.1793,-0.1794,-0.1795,-0.1796,-0.174,-0.1738,0,0,0,0,0,0,-0.1712,-0.1706,-0.1672,-0.167,-0.1707,-0.1682,-0.1681,-0.1679,-0.1712,-0.1718,-0.1685,-0.1689,-0.1742,-0.1749,-0.1754,-0.1764,-0.1794,-0.1796,-0.1797,-0.1743,-0.174,-0.1737,0,0,0,0,0,0,-0.1713,-0.1709,-0.1674,-0.1686,-0.1681,-0.1679,-0.1676,-0.1677,-0.168,-0.1706,-0.1715,-0.1689,-0.1744,-0.1752,-0.175,-0.1767,-0.1797,-0.1798,-0.1746,-0.1742,-0.1738,-0.1752,0,0,0,0,0,0,-0.1714,-0.171,-0.1708,-0.1686,-0.168,-0.1657,-0.1674,-0.1674,-0.1671,-0.1677,-0.1712,-0.1722,-0.1746,-0.1747,-0.1752,-0.1769,-0.18,-0.1749,-0.1744,-0.174,-0.1754,-0.1749,-0.1744,0,0,0,0,0,-0.1716,-0.1705,-0.1708,-0.1704,-0.1678,-0.1656,-0.1652,-0.1659,-0.1669,-0.167,-0.1673,-0.1722,-0.1721,-0.1746,-0.1752,-0.1771,-0.1751,-0.1745,-0.174,-0.1757,-0.175,-0.1744,0,0,0,0,0,0,-0.1726,-0.1707,-0.171,-0.1696,-0.1684,-0.1664,-0.1656,-0.1657,-0.1656,-0.1663,-0.1692,-0.1701,-0.1704,-0.1712,-0.1739,-0.173,-0.1743,-0.1739,-0.1754,-0.1748,-0.1743,-0.1768,-0.1801,0,0,0,0,0,-0.1724,-0.171,-0.1696,-0.1683,-0.1678,-0.1666,-0.1657,-0.1661,-0.1653,-0.1656,-0.1674,-0.1679,-0.1677,-0.1695,-0.1691,-0.1692,-0.1684,-0.17,-0.1695,-0.1691,-0.1708,-0.1698,-0.1695,-0.1719,-0.1719,-0.1719,0,0,-0.1719,-0.1708,-0.1699,-0.1683,-0.1673,-0.167,-0.1668,-0.1654,-0.1659,-0.1666,-0.1674,-0.1663,-0.1665,-0.1663,-0.1666,-0.1684,-0.1665,-0.1684,-0.1682,-0.1701,-0.1692,-0.169,-0.1689,-0.1715,-0.1716,-0.1716,0,0,-0.1704,-0.1699,-0.1686,-0.1682,-0.1668,-0.1664,-0.1665,-0.1649,-0.1655,-0.1643,-0.1644,-0.1634,-0.1639,-0.1644,-0.1646,-0.1604,-0.163,-0.16,-0.162,-0.161,-0.161,-0.1609,-0.155,-0.1545,-0.1611,-0.1611,-0.1611,0,-0.1697,-0.1691,-0.1678,-0.1674,-0.1676,-0.1668,-0.167,-0.1664,-0.1651,-0.1655,-0.1652,-0.1629,-0.1633,-0.1636,-0.1618,-0.1603,-0.1582,-0.1657,-0.161,-0.1609,-0.1609,-0.1549,-0.1544,-0.1611,-0.1611,-0.1611,-0.1611,0,-0.168,-0.1682,-0.1674,-0.1675,-0.1675,-0.167,-0.1672,-0.1673,-0.1673,-0.167,-0.1661,-0.1637,-0.1634,-0.1622,-0.1615,-0.161,-0.1586,-0.1601,-0.1643,-0.1609,-0.1545,-0.1539,-0.1611,-0.1611,-0.1611,-0.1611,0,0,-0.1635,-0.1659,-0.1655,-0.1667,-0.168,-0.1672,-0.1691,-0.17,-0.1707,-0.1693,-0.1698,-0.1674,-0.1662,-0.1659,-0.1641,-0.1632,-0.1589,-0.1621,-0.1621,-0.1592,-0.153,-0.1455,-0.144,-0.1607,-0.1607,-0.1607,-0.1471,0,-0.1625,-0.1627,-0.1647,-0.1659,-0.1664,-0.1688,-0.1703,-0.1713,-0.1717,-0.1716,-0.1702,-0.1685,-0.1677,-0.1661,-0.1656,-0.1605,-0.158,-0.1622,-0.1541,-0.1538,-0.1502,-0.1434,-0.1379,-0.125,-0.1465,-0.1464,-0.1463,0,-0.16,-0.1607,-0.1619,-0.166,-0.1664,-0.1672,-0.1702,-0.1713,-0.1728,-0.1731,-0.1734,-0.1717,-0.1692,-0.1683,-0.1614,-0.1643,-0.159,-0.155,-0.1544,-0.1477,-0.1453,-0.1323,-0.1231,-0.1453,-0.1454,-0.1454,-0.1455,0,-0.1559,-0.159,-0.1602,-0.1612,-0.1649,-0.1663,-0.1683,-0.171,-0.1709,-0.173,-0.1723,-0.1716,-0.1684,-0.1647,-0.157,-0.1591,-0.1481,-0.1498,-0.1375,-0.1367,-0.1306,-0.1293,-0.1451,-0.1451,-0.1451,-0.1452,-0.1452,0,-0.1533,-0.1536,-0.1581,-0.1576,-0.1581,-0.1631,-0.1632,-0.1661,-0.1683,-0.168,-0.1715,-0.1706,-0.1678,-0.162,-0.1563,-0.1434,-0.1473,-0.1361,-0.1332,-0.1298,-0.1287,-0.147,-0.1474,-0.1447,-0.1448,-0.1449,-0.145,0,-0.1466,-0.1503,-0.1506,-0.1547,-0.1554,-0.1549,-0.1575,-0.1575,-0.1621,-0.1619,-0.162,-0.1662,-0.1598,-0.1537,-0.1452,-0.1397,-0.1298,-0.1246,-0.118,-0.1147,-0.1187,-0.1192,-0.1084,-0.1081,-0.1078,-0.1075,-0.1073,0,-0.1428,-0.1427,-0.1453,-0.1442,-0.1451,-0.1457,-0.1456,-0.1516,-0.1521,-0.1592,-0.158,-0.1555,-0.1529,-0.1369,-0.1267,-0.1119,-0.1186,-0.0983,-0.1022,-0.1168,-0.1152,-0.1162,-0.1172,-0.0917,-0.0914,-0.0911,-0.0909,0,-0.1345,-0.1358,-0.1356,-0.1338,-0.1331,-0.1325,-0.134,-0.1333,-0.1416,-0.1423,-0.1458,-0.1455,-0.1367,-0.1215,-0.1041,-0.0966,-0.1005,-0.0921,-0.1092,-0.1028,-0.1003,-0.099,-0.1006,-0.0885,-0.0888,-0.089,-0.0891,-0.0892,-0.127,-0.1247,-0.1249,-0.1223,-0.1211,-0.1186,-0.1152,-0.1183,-0.1172,-0.1161,-0.1263,-0.1198,-0.1216,-0.0896,-0.0807,-0.072,-0.0809,-0.0767,-0.0779,-0.0793,-0.0808,-0.078,-0.0619,-0.062,-0.0621,-0.0622,-0.0622,0,-0.1177,-0.1163,-0.1135,-0.1098,-0.1043,-0.1076,-0.1062,-0.1016,-0.0972,-0.0953,-0.0936,-0.0819,-0.0712,-0.0699,-0.0543,-0.0506,-0.0535,-0.0468,-0.0534,-0.0559,-0.0581,-0.0588,-0.0339,-0.0337,-0.0336,-0.0335,0,0,-0.1126,-0.1074,-0.1062,-0.0943,-0.0911,-0.0815,-0.0786,-0.074,-0.0695,-0.0601,-0.0535,-0.0549,-0.064,-0.0443,-0.044,-0.036,-0.0438,-0.0325,-0.0562,-0.0663,-0.0682,-0.0773,-0.0814,0,0,0,0,0]},{"header":{"parameterUnit":"m.s-1","parameterCategory":2,"la1":30.2991,"la2":30.254,"lo1":-89.0895,"lo2":-89.0444,"dy":0.0017,"dx":0.0017,"nx":28,"ny":28,"refTime":"2023-10-16T09:00:00:Z","depth":"2","parameterNumber":3,"parameterNumberName":"V-component_of_CURRENTS"},"data":[0,0,0,0,0,0,0,0,0,0,0,0,0,0,0,0,0,0,0,0,0,0,0,0,0,0,0,0,0,0,0,0,0,0,0,0,0,0,0,0,0,0,0,0,0,0,0,0,0,0,0,0,0,0,0,0,0,0,-0.0525,-0.0525,0,-0.0445,-0.0444,-0.0443,-0.0402,-0.0402,-0.0402,-0.0402,-0.0286,-0.0283,-0.028,0,0,0,0,0,0,0,0,0,0,0,0,0,-0.0605,-0.0603,-0.0526,-0.0525,-0.0524,-0.0445,-0.0444,-0.0443,-0.0402,-0.0402,-0.0402,-0.0402,-0.0287,-0.0284,-0.028,0,0,0,0,0,0,0,0,0,0,0,0,0,-0.055,-0.0603,-0.0526,-0.0496,-0.0492,-0.0446,-0.0444,-0.0442,-0.0402,-0.0402,-0.0402,-0.0403,-0.0289,-0.0284,-0.0279,-0.0244,0,0,-0.0264,-0.0262,0,0,0,0,0,0,0,0,-0.0553,-0.0547,-0.0501,-0.0498,-0.0494,-0.0436,-0.043,-0.0375,-0.0402,-0.0434,-0.0402,-0.0403,-0.0334,-0.0326,-0.0307,-0.0239,-0.0234,-0.0264,-0.0261,-0.0259,-0.0258,0,0,0,0,0,0,0,-0.0557,-0.055,-0.0491,-0.05,-0.0496,-0.0473,-0.0466,-0.0419,-0.0381,-0.0431,-0.0428,-0.0423,-0.0332,-0.0312,-0.0304,-0.0232,-0.0264,-0.026,-0.0257,-0.0255,-0.0145,-0.0145,0,0,0,0,0,0,-0.0573,-0.0553,-0.0494,-0.0489,-0.0527,-0.0472,-0.0463,-0.0452,-0.0382,-0.0373,-0.0423,-0.0421,-0.032,-0.031,-0.03,-0.0249,-0.0259,-0.0254,-0.0252,-0.0145,-0.0145,-0.0145,0,0,0,0,0,0,-0.0575,-0.0568,-0.0497,-0.0522,-0.0512,-0.0471,-0.0458,-0.0451,-0.0432,-0.0377,-0.0366,-0.0413,-0.032,-0.0307,-0.0265,-0.0245,-0.0252,-0.0248,-0.0145,-0.0145,-0.0145,-0.0151,0,0,0,0,0,0,-0.0577,-0.0569,-0.0567,-0.0523,-0.0511,-0.0468,-0.0458,-0.0449,-0.0429,-0.0427,-0.0365,-0.0354,-0.0319,-0.0272,-0.026,-0.0238,-0.0244,-0.0145,-0.0145,-0.0145,-0.0151,-0.0152,-0.0152,0,0,0,0,0,-0.058,-0.057,-0.0567,-0.056,-0.0509,-0.0468,-0.0459,-0.043,-0.0429,-0.0415,-0.0383,-0.0356,-0.0264,-0.0268,-0.0254,-0.023,-0.0145,-0.0145,-0.0145,-0.0151,-0.0152,-0.0152,0,0,0,0,0,0,-0.0601,-0.0564,-0.056,-0.0539,-0.051,-0.0462,-0.0448,-0.0433,-0.0396,-0.0395,-0.035,-0.0336,-0.0292,-0.0267,-0.0273,-0.0203,-0.0202,-0.0199,-0.0211,-0.0211,-0.0212,-0.0218,-0.024,0,0,0,0,0,-0.0607,-0.0591,-0.0555,-0.054,-0.0526,-0.0491,-0.0472,-0.0453,-0.0417,-0.0401,-0.036,-0.0321,-0.028,-0.0253,-0.0213,-0.0169,-0.0145,-0.0149,-0.0149,-0.0149,-0.0147,-0.0105,-0.0101,-0.0145,-0.0145,-0.0145,0,0,-0.0611,-0.0591,-0.0581,-0.0544,-0.0519,-0.0496,-0.0479,-0.0451,-0.043,-0.0393,-0.0352,-0.0318,-0.0271,-0.0224,-0.0202,-0.0199,-0.0124,-0.0149,-0.015,-0.0147,-0.0105,-0.01,-0.0097,-0.0145,-0.0145,-0.0145,0,0,-0.061,-0.0594,-0.0581,-0.0558,-0.0526,-0.05,-0.0496,-0.045,-0.0428,-0.0389,-0.036,-0.0317,-0.0256,-0.0213,-0.0185,-0.0165,-0.013,-0.0157,-0.0153,-0.0113,-0.0109,-0.0105,-0.0065,-0.0058,-0.0153,-0.0153,-0.0154,0,-0.0621,-0.0602,-0.057,-0.0554,-0.0542,-0.0506,-0.0493,-0.0457,-0.0405,-0.0386,-0.038,-0.0291,-0.0247,-0.0186,-0.0179,-0.0161,-0.014,-0.0153,-0.0113,-0.0108,-0.0104,-0.0064,-0.0056,-0.0154,-0.0154,-0.0154,-0.0154,0,-0.0606,-0.0599,-0.0588,-0.0559,-0.0536,-0.052,-0.0476,-0.0449,-0.0425,-0.039,-0.0334,-0.0277,-0.0226,-0.0203,-0.0179,-0.0126,-0.0121,-0.012,-0.011,-0.01,-0.0059,-0.005,-0.0154,-0.0154,-0.0154,-0.0154,0,0,-0.0616,-0.0587,-0.0586,-0.0588,-0.0545,-0.0527,-0.0489,-0.0445,-0.0425,-0.0367,-0.0332,-0.0254,-0.0229,-0.0198,-0.0159,-0.0116,-0.006,-0.0108,-0.0105,-0.0066,0.0027,0.0029,0.0039,-0.0056,-0.0055,-0.0054,0.0045,0,-0.0621,-0.0612,-0.0587,-0.058,-0.0576,-0.0537,-0.0507,-0.0462,-0.0419,-0.0371,-0.0302,-0.0254,-0.0224,-0.0202,-0.0152,-0.0083,-0.0038,-0.0087,0.0009,0.0012,0.0015,0.0049,0.0021,0.0106,0.0054,0.0055,0.0057,0,-0.0618,-0.0617,-0.0619,-0.0609,-0.0602,-0.059,-0.0551,-0.0517,-0.0436,-0.0403,-0.0339,-0.0285,-0.0197,-0.0188,-0.0058,-0.0094,-0.0036,0.0015,0.0019,0.003,0.003,0.0087,0.0124,0.0072,0.0071,0.0069,0.0068,0,-0.0653,-0.0642,-0.0654,-0.0648,-0.0621,-0.0617,-0.0597,-0.0532,-0.0508,-0.0422,-0.0399,-0.0289,-0.024,-0.0146,-0.0032,-0.0046,0.0103,0.0096,0.0154,0.0155,0.0155,0.0153,0.0178,0.0178,0.0178,0.0178,0.0177,0,-0.0673,-0.0684,-0.0678,-0.0685,-0.0697,-0.066,-0.0653,-0.0613,-0.0556,-0.0522,-0.0426,-0.0368,-0.0231,-0.0126,-0.0029,0.0099,0.0108,0.0167,0.0185,0.0151,0.0148,0.0132,0.0126,0.0181,0.018,0.018,0.0179,0,-0.0713,-0.0704,-0.0725,-0.0718,-0.0717,-0.0728,-0.0708,-0.0696,-0.0637,-0.0591,-0.0566,-0.0424,-0.0262,-0.0124,0.0046,0.0095,0.0221,0.0257,0.021,0.0221,0.0245,0.0237,0.0337,0.0338,0.0339,0.0339,0.034,0,-0.0741,-0.0753,-0.0765,-0.0783,-0.0788,-0.0794,-0.0794,-0.0743,-0.0726,-0.0612,-0.059,-0.0426,-0.0287,-0.0037,0.0115,0.0289,0.0284,0.0313,0.0283,0.0256,0.0264,0.0254,0.0245,0.0286,0.0287,0.0287,0.0287,0,-0.0801,-0.0802,-0.0819,-0.0851,-0.0869,-0.0877,-0.0873,-0.0867,-0.0791,-0.0743,-0.0613,-0.0488,-0.0216,0.0002,0.0202,0.0281,0.0285,0.0319,0.0324,0.0239,0.0214,0.0219,0.0211,0.0287,0.0287,0.0287,0.0287,0.0287,-0.0859,-0.0882,-0.09,-0.0925,-0.0945,-0.0953,-0.0952,-0.0924,-0.0886,-0.0767,-0.0646,-0.0427,-0.0227,0.0108,0.0238,0.0348,0.0346,0.0338,0.0336,0.0334,0.0299,0.0276,0.0355,0.0355,0.0356,0.0356,0.0356,0,-0.0927,-0.0937,-0.0972,-0.0997,-0.102,-0.1009,-0.0997,-0.0964,-0.0909,-0.0749,-0.0611,-0.0366,-0.013,0.0108,0.0297,0.0369,0.0343,0.036,0.0323,0.0321,0.032,0.0283,0.0336,0.0336,0.0337,0.0337,0,0,-0.0966,-0.1002,-0.1001,-0.1052,-0.1066,-0.1071,-0.1056,-0.0989,-0.0869,-0.0691,-0.0508,-0.0323,-0.0057,0.006,0.0171,0.0283,0.0264,0.0265,0.0268,0.0206,0.0204,0.0291,0.023,0,0,0,0,0]}],[{"header":{"parameterUnit":"m.s-1","parameterCategory":2,"la1":30.2991,"la2":30.254,"lo1":-89.0895,"lo2":-89.0444,"dy":0.0017,"dx":0.0017,"nx":28,"ny":28,"refTime":"2023-10-16T09:00:00:Z","depth":"4","parameterNumber":2,"parameterNumberName":"U-component_of_CURRENTS"},"data":[0,0,0,0,0,0,0,0,0,0,0,0,0,0,0,0,0,0,0,0,0,0,0,0,0,0,0,0,0,0,0,0,0,0,0,0,0,0,0,0,0,0,0,0,0,0,0,0,0,0,0,0,0,0,0,0,0,0,-0.1165,-0.1165,0,-0.119,-0.1191,-0.1191,-0.1235,-0.1236,-0.1237,-0.1238,-0.1254,-0.1254,-0.1253,0,0,0,0,0,0,0,0,0,0,0,0,0,-0.1127,-0.1127,-0.1165,-0.1165,-0.1165,-0.119,-0.1191,-0.1191,-0.1235,-0.1236,-0.1237,-0.1238,-0.1254,-0.1254,-0.1253,0,0,0,0,0,0,0,0,0,0,0,0,0,-0.1147,-0.1128,-0.1164,-0.119,-0.1193,-0.119,-0.1191,-0.1191,-0.1235,-0.1236,-0.1237,-0.1239,-0.1254,-0.1254,-0.1253,-0.1225,0,0,-0.1252,-0.1251,0,0,0,0,0,0,0,0,-0.1146,-0.1148,-0.1186,-0.1189,-0.1192,-0.1211,-0.1183,-0.1202,-0.1235,-0.1219,-0.1238,-0.1239,-0.1238,-0.1239,-0.1241,-0.1225,-0.1226,-0.1252,-0.1251,-0.1251,-0.1251,0,0,0,0,0,0,0,-0.1144,-0.1147,-0.1175,-0.1186,-0.119,-0.1192,-0.1196,-0.1187,-0.1221,-0.122,-0.1224,-0.1226,-0.124,-0.1241,-0.1241,-0.1226,-0.1252,-0.1251,-0.1251,-0.1251,-0.1241,-0.1241,0,0,0,0,0,0,-0.1141,-0.1146,-0.1174,-0.1175,-0.1171,-0.1191,-0.1196,-0.1203,-0.1221,-0.1225,-0.1225,-0.1228,-0.1242,-0.1242,-0.1242,-0.1277,-0.1251,-0.1251,-0.125,-0.124,-0.1241,-0.1241,0,0,0,0,0,0,-0.1141,-0.1144,-0.1173,-0.1161,-0.1165,-0.1191,-0.1198,-0.1203,-0.1228,-0.1225,-0.1229,-0.1248,-0.1243,-0.1243,-0.1255,-0.1276,-0.125,-0.125,-0.124,-0.1241,-0.1241,-0.1303,0,0,0,0,0,0,-0.1139,-0.1143,-0.1158,-0.1161,-0.1166,-0.1189,-0.1197,-0.1203,-0.1227,-0.1232,-0.1245,-0.1247,-0.1244,-0.1256,-0.1254,-0.1274,-0.1249,-0.124,-0.124,-0.1241,-0.1301,-0.1306,-0.1309,0,0,0,0,0,-0.1138,-0.115,-0.1159,-0.1163,-0.1182,-0.119,-0.1193,-0.1214,-0.1227,-0.1241,-0.125,-0.1248,-0.1255,-0.1256,-0.1254,-0.1274,-0.124,-0.124,-0.1241,-0.1299,-0.1305,-0.1309,0,0,0,0,0,0,-0.1143,-0.1155,-0.1166,-0.1182,-0.1194,-0.1198,-0.1214,-0.1223,-0.1241,-0.1251,-0.1249,-0.1251,-0.127,-0.1255,-0.1255,-0.1268,-0.1246,-0.1246,-0.1292,-0.1296,-0.13,-0.1302,-0.1249,0,0,0,0,0,-0.1149,-0.1164,-0.1172,-0.1188,-0.1195,-0.1207,-0.1217,-0.123,-0.1239,-0.1251,-0.1259,-0.1261,-0.1263,-0.1269,-0.1266,-0.1271,-0.1244,-0.128,-0.1284,-0.1288,-0.1286,-0.1279,-0.1283,-0.1241,-0.1241,-0.1241,0,0,-0.1157,-0.1164,-0.1176,-0.1191,-0.1202,-0.1218,-0.1217,-0.1237,-0.1257,-0.1246,-0.1281,-0.1278,-0.1266,-0.128,-0.1286,-0.1276,-0.128,-0.1288,-0.1291,-0.1287,-0.128,-0.1284,-0.1287,-0.1241,-0.1241,-0.1241,0,0,-0.1168,-0.1186,-0.12,-0.1212,-0.1231,-0.1237,-0.1248,-0.1263,-0.1281,-0.13,-0.1301,-0.1311,-0.1313,-0.1314,-0.1311,-0.1329,-0.1302,-0.1328,-0.1354,-0.1348,-0.1352,-0.1355,-0.1306,-0.1304,-0.1331,-0.1331,-0.1331,0,-0.1179,-0.1199,-0.1206,-0.1221,-0.1238,-0.1249,-0.1271,-0.1284,-0.1305,-0.1318,-0.1321,-0.1331,-0.1328,-0.134,-0.135,-0.1341,-0.1318,-0.1343,-0.1355,-0.1358,-0.136,-0.1309,-0.1307,-0.1334,-0.1333,-0.1333,-0.1333,0,-0.1193,-0.1221,-0.123,-0.1257,-0.1274,-0.1294,-0.1311,-0.1335,-0.1355,-0.1365,-0.1388,-0.1381,-0.1387,-0.1388,-0.1377,-0.1391,-0.1361,-0.1364,-0.1349,-0.1368,-0.1313,-0.1309,-0.1338,-0.1337,-0.1336,-0.1335,0,0,-0.118,-0.1232,-0.1237,-0.1261,-0.1298,-0.1308,-0.1347,-0.1377,-0.1398,-0.1419,-0.1441,-0.1448,-0.1445,-0.144,-0.1429,-0.1424,-0.1415,-0.1405,-0.1403,-0.1365,-0.1372,-0.1277,-0.1263,-0.1429,-0.143,-0.143,-0.132,0,-0.1192,-0.1231,-0.1256,-0.1301,-0.1322,-0.1354,-0.1384,-0.1413,-0.1436,-0.1458,-0.146,-0.1468,-0.1464,-0.1463,-0.1465,-0.1426,-0.141,-0.1442,-0.135,-0.1346,-0.1268,-0.1258,-0.143,-0.1317,-0.1316,-0.1315,-0.1315,0,-0.1192,-0.1219,-0.1267,-0.1324,-0.1336,-0.1364,-0.1414,-0.1441,-0.1475,-0.149,-0.1509,-0.1505,-0.1499,-0.1492,-0.1445,-0.1467,-0.1425,-0.1392,-0.1387,-0.1275,-0.1245,-0.1295,-0.1307,-0.1308,-0.1308,-0.1309,-0.1309,0,-0.1163,-0.1226,-0.1268,-0.1287,-0.1348,-0.1377,-0.1409,-0.1451,-0.1459,-0.1503,-0.15,-0.1516,-0.1494,-0.1473,-0.141,-0.143,-0.1341,-0.1357,-0.1227,-0.1218,-0.1311,-0.1309,-0.1323,-0.1323,-0.1324,-0.1324,-0.1324,0,-0.1149,-0.1181,-0.126,-0.1275,-0.1308,-0.1364,-0.1392,-0.1428,-0.146,-0.1451,-0.1504,-0.1478,-0.1491,-0.1444,-0.1406,-0.1286,-0.1334,-0.1216,-0.1187,-0.1334,-0.1337,-0.1306,-0.1306,-0.132,-0.1321,-0.1321,-0.1322,0,-0.1095,-0.1157,-0.1197,-0.1273,-0.1292,-0.131,-0.1354,-0.1362,-0.1411,-0.14,-0.1404,-0.1429,-0.1376,-0.1359,-0.13,-0.1243,-0.1163,-0.1112,-0.1234,-0.1217,-0.1043,-0.1047,-0.0951,-0.0947,-0.0943,-0.0941,-0.0938,0,-0.1065,-0.1089,-0.1169,-0.118,-0.1211,-0.1246,-0.1257,-0.132,-0.1321,-0.1343,-0.1318,-0.1298,-0.13,-0.1127,-0.1145,-0.1056,-0.1048,-0.0985,-0.1051,-0.1024,-0.1007,-0.1017,-0.1025,-0.0932,-0.0932,-0.0931,-0.093,0,-0.0997,-0.1042,-0.107,-0.1096,-0.1117,-0.1127,-0.1154,-0.1136,-0.1193,-0.1246,-0.1185,-0.1145,-0.1085,-0.1052,-0.0987,-0.0933,-0.1021,-0.0949,-0.0957,-0.1018,-0.1001,-0.0989,-0.1002,-0.0917,-0.0919,-0.092,-0.0921,0,-0.0938,-0.0939,-0.0985,-0.0992,-0.1013,-0.0994,-0.1025,-0.1017,-0.1022,-0.1068,-0.1038,-0.1035,-0.1068,-0.0983,-0.0922,-0.0865,-0.0859,-0.082,-0.0835,-0.0848,-0.0869,-0.0835,-0.0661,0,0,0,0,0,-0.0872,-0.0866,-0.0872,-0.0874,-0.089,-0.0901,-0.0943,-0.0982,-0.1036,-0.0959,-0.0997,-0.0944,-0.0868,-0.0873,-0.079,-0.087,-0.086,-0.0768,-0.0825,-0.085,-0.0864,-0.09,0,0,0,0,0,0,-0.0827,-0.0838,-0.084,-0.077,-0.0746,-0.075,-0.0773,-0.0819,-0.0792,-0.0855,-0.0827,-0.0865,-0.0819,-0.0894,-0.0764,-0.0761,-0.0769,-0.0775,-0.0771,-0.0842,-0.0855,-0.0866,-0.0908,0,0,0,0,0]},{"header":{"parameterUnit":"m.s-1","parameterCategory":2,"la1":30.2991,"la2":30.254,"lo1":-89.0895,"lo2":-89.0444,"dy":0.0017,"dx":0.0017,"nx":28,"ny":28,"refTime":"2023-10-16T09:00:00:Z","depth":"4","parameterNumber":3,"parameterNumberName":"V-component_of_CURRENTS"},"data":[0,0,0,0,0,0,0,0,0,0,0,0,0,0,0,0,0,0,0,0,0,0,0,0,0,0,0,0,0,0,0,0,0,0,0,0,0,0,0,0,0,0,0,0,0,0,0,0,0,0,0,0,0,0,0,0,0,0,-0.0396,-0.0395,0,-0.0349,-0.0348,-0.0348,-0.0341,-0.0342,-0.0342,-0.0343,-0.0308,-0.0307,-0.0306,0,0,0,0,0,0,0,0,0,0,0,0,0,-0.0437,-0.0436,-0.0396,-0.0395,-0.0395,-0.0349,-0.0348,-0.0347,-0.0341,-0.0342,-0.0342,-0.0343,-0.0309,-0.0307,-0.0306,0,0,0,0,0,0,0,0,0,0,0,0,0,-0.0407,-0.0436,-0.0396,-0.0387,-0.0386,-0.0349,-0.0348,-0.0347,-0.0341,-0.0342,-0.0342,-0.0343,-0.0309,-0.0307,-0.0305,-0.0276,0,0,-0.0299,-0.0298,0,0,0,0,0,0,0,0,-0.0408,-0.0405,-0.0389,-0.0387,-0.0386,-0.0353,-0.035,-0.0324,-0.0341,-0.0357,-0.0343,-0.0344,-0.0325,-0.0321,-0.0309,-0.0274,-0.0273,-0.0299,-0.0297,-0.0296,-0.0296,0,0,0,0,0,0,0,-0.041,-0.0407,-0.0376,-0.0388,-0.0387,-0.0371,-0.0367,-0.0345,-0.0336,-0.0355,-0.0355,-0.0351,-0.0324,-0.0311,-0.0308,-0.0272,-0.0299,-0.0297,-0.0295,-0.0295,-0.0223,-0.0223,0,0,0,0,0,0,-0.042,-0.0409,-0.0378,-0.0375,-0.0401,-0.037,-0.0366,-0.0362,-0.0336,-0.0333,-0.0351,-0.0351,-0.0314,-0.031,-0.0307,-0.0271,-0.0296,-0.0294,-0.0293,-0.0224,-0.0223,-0.0222,0,0,0,0,0,0,-0.0421,-0.0417,-0.0379,-0.0392,-0.0386,-0.0368,-0.0363,-0.036,-0.0355,-0.0332,-0.033,-0.035,-0.0315,-0.031,-0.0288,-0.027,-0.0293,-0.0292,-0.0225,-0.0224,-0.0223,-0.0199,0,0,0,0,0,0,-0.0422,-0.0418,-0.0421,-0.0392,-0.0386,-0.0361,-0.0363,-0.0359,-0.0352,-0.0352,-0.0331,-0.0328,-0.0315,-0.0291,-0.0286,-0.0267,-0.029,-0.0225,-0.0224,-0.0223,-0.0201,-0.0198,-0.0195,0,0,0,0,0,-0.0424,-0.0419,-0.0422,-0.0418,-0.039,-0.036,-0.0355,-0.0345,-0.0351,-0.0344,-0.033,-0.0329,-0.028,-0.0289,-0.0283,-0.0263,-0.0226,-0.0224,-0.0223,-0.0202,-0.0198,-0.0195,0,0,0,0,0,0,-0.0437,-0.0417,-0.042,-0.041,-0.0391,-0.036,-0.0353,-0.0347,-0.033,-0.0334,-0.0318,-0.0313,-0.0287,-0.028,-0.029,-0.024,-0.0254,-0.0251,-0.024,-0.0236,-0.0233,-0.0237,-0.0288,0,0,0,0,0,-0.0443,-0.0437,-0.0414,-0.0408,-0.0399,-0.0379,-0.0368,-0.036,-0.034,-0.0334,-0.0317,-0.0299,-0.0273,-0.0261,-0.0241,-0.0211,-0.0201,-0.0197,-0.0194,-0.0191,-0.0191,-0.0153,-0.0146,-0.0218,-0.0218,-0.0218,0,0,-0.0447,-0.0436,-0.0433,-0.0411,-0.0396,-0.0378,-0.0374,-0.0357,-0.0341,-0.0332,-0.0307,-0.0289,-0.0264,-0.023,-0.0218,-0.0224,-0.0166,-0.0189,-0.0187,-0.0188,-0.0151,-0.0144,-0.0137,-0.0217,-0.0217,-0.0217,0,0,-0.0445,-0.0441,-0.0434,-0.0419,-0.04,-0.0382,-0.038,-0.0351,-0.0339,-0.0313,-0.0298,-0.0267,-0.0239,-0.0205,-0.0188,-0.0156,-0.0153,-0.0157,-0.0141,-0.0104,-0.0097,-0.0092,-0.0073,-0.0066,-0.0154,-0.0154,-0.0154,0,-0.0455,-0.0445,-0.0427,-0.0414,-0.0406,-0.0386,-0.0375,-0.0349,-0.0318,-0.0303,-0.0308,-0.0245,-0.0221,-0.0168,-0.0154,-0.0147,-0.0138,-0.0155,-0.0099,-0.0093,-0.0088,-0.007,-0.0062,-0.0152,-0.0153,-0.0153,-0.0153,0,-0.0441,-0.044,-0.0432,-0.0413,-0.0397,-0.0385,-0.0351,-0.0332,-0.032,-0.0295,-0.025,-0.0211,-0.0177,-0.0157,-0.0144,-0.009,-0.0101,-0.01,-0.0108,-0.0079,-0.0062,-0.0055,-0.015,-0.0151,-0.0151,-0.0152,0,0,-0.0451,-0.043,-0.0431,-0.0435,-0.0401,-0.039,-0.0354,-0.0319,-0.0308,-0.0261,-0.0237,-0.0166,-0.0152,-0.0131,-0.0104,-0.0062,-0.0009,-0.0067,-0.0066,-0.0048,0.0057,0.0029,0.0034,-0.0002,-0.0001,0.0001,0.0052,0,-0.0453,-0.0447,-0.0427,-0.0423,-0.042,-0.0391,-0.0365,-0.0329,-0.0299,-0.0268,-0.0204,-0.0174,-0.0139,-0.0131,-0.0075,-0.0031,0.0012,-0.0024,0.0026,0.0027,-0.0,0.0043,0.0005,0.0058,0.006,0.0061,0.0062,0,-0.045,-0.045,-0.0454,-0.0448,-0.0444,-0.0437,-0.0411,-0.0382,-0.0319,-0.0297,-0.024,-0.0202,-0.0121,-0.0111,0.0002,-0.0027,0.0017,0.0055,0.0058,0.0028,0.0014,0.0024,0.0075,0.0074,0.0073,0.0072,0.0071,0,-0.0481,-0.0472,-0.0485,-0.0482,-0.0462,-0.0462,-0.0449,-0.0399,-0.0384,-0.0322,-0.0314,-0.0211,-0.0182,-0.0089,0.0001,-0.0002,0.0108,0.0112,0.0133,0.0131,0.0129,0.0122,0.0191,0.019,0.019,0.019,0.019,0,-0.0493,-0.0508,-0.0511,-0.052,-0.054,-0.0508,-0.0515,-0.0484,-0.0444,-0.0425,-0.0341,-0.0314,-0.0178,-0.0098,-0.0006,0.0086,0.0107,0.0144,0.015,0.0136,0.013,0.0134,0.0126,0.0192,0.0192,0.0191,0.0191,0,-0.0527,-0.0525,-0.0551,-0.0554,-0.0559,-0.0577,-0.0574,-0.0571,-0.0531,-0.0507,-0.0491,-0.0393,-0.0283,-0.015,-0.001,0.0054,0.0158,0.0181,0.0148,0.0149,0.0156,0.0149,0.0215,0.0215,0.0215,0.0214,0.0214,0,-0.0547,-0.0563,-0.0594,-0.062,-0.0631,-0.065,-0.0659,-0.0622,-0.0612,-0.0552,-0.0541,-0.0445,-0.0362,-0.0176,-0.0045,0.013,0.0149,0.019,0.0194,0.0164,0.0163,0.0156,0.015,0.0214,0.0213,0.0213,0.0213,0,-0.0591,-0.0608,-0.0631,-0.0682,-0.0712,-0.0731,-0.0738,-0.0732,-0.0677,-0.0651,-0.0567,-0.0459,-0.0346,-0.0186,-0.0058,0.0068,0.0164,0.0187,0.0189,0.0193,0.0162,0.016,0.0155,0.0212,0.0212,0.0212,0.0212,0,-0.0637,-0.0666,-0.0701,-0.0736,-0.0781,-0.0794,-0.0786,-0.0754,-0.073,-0.0639,-0.0618,-0.0476,-0.0388,-0.0221,-0.0098,0.0021,0.005,0.0082,0.009,0.0092,0.0042,-0.0016,-0.0007,0,0,0,0,0,-0.0676,-0.0701,-0.0749,-0.0785,-0.0827,-0.0839,-0.0831,-0.0806,-0.0749,-0.0691,-0.0644,-0.0524,-0.0338,-0.0261,-0.0144,-0.012,0.0054,0.0016,0.009,0.0206,0.0207,0.0167,0,0,0,0,0,0,-0.0701,-0.0752,-0.0756,-0.0815,-0.0842,-0.0875,-0.0864,-0.0823,-0.077,-0.0701,-0.0594,-0.0523,-0.0336,-0.0405,-0.0152,-0.0118,-0.0062,0.0111,0.0113,0.0205,0.0206,0.0207,0.0166,0,0,0,0,0]}]]